sat.trackr.live / text

‹ back to catalog

CANVAS

NORAD 68635 · 2026-074J

PAYLOAD ACTIVE UNKNOWN

§ Identity

Operator
Country
US
Launch date
2026-04-07
Launch site
AFWTR
Launch vehicle
Mass (kg)
RCS (m²)

External: N2YO · Heavens-Above · Gunter

§ Orbital elements

Epoch: 2026-05-24T17:59:18.915936Z

Period
94.44 min
Inclination
60.0226°
Eccentricity
0.0025789
Mean motion
15.24758616 rev/d
Perigee alt
473.8 km
Apogee alt
509.2 km
Semi-major
6,869.6 km
B*
4.0389e-4
RAAN
268.0600°
Arg perigee
6.3878°
Mean anomaly
353.7526°
Rev number
721

§ Raw data

CANVAS1 68635U 26074J   26144.74952449  .00009903  00000+0  40389-3 0  99952 68635  60.0226 268.0600 0025789   6.3878 353.7526 15.24758616  7217

JSON: /api/v1/satellites/68635 · /tle

For live sub-satellite position, see the globe view (requires WebGL).

§ Visibility from observer

Set your observer location to see the next 7 days of passes ≥ 10°. The values pass through the URL so the page stays shareable.

No JS? Fill the form by hand. The geolocation button needs JavaScript.